contact:dominique.lefevre@mio.osupytheas.fr, maurice.libes@osupytheas.fr, didier.mallarino@osupytheas.fr
Project:EMSO http://www.emso-fr.org/EMSO-France
Depth: 2436.0 m
Title:EMSO Ligure Ouest : Data MII capteur AQUADOPP
Date,Latitude,Longitude,X_East,Y_North,Z_Up,Amplitude_X,Amplitude_Y,Amplitude_Z,Batterie,SoundSpeed,Heading,Pitch,Roll,Pressure,TIS,Speed,Direction
, degrees North, degrees East, m.s-1, m.s-1,m.s-1, 1, 1, 1, Volt, m.s-1, degree, degree, degree, dbar, degree_C, m.s-1, degree
2020-09-16T00:04:03,42.805,6.029,0.054,-0.015,-0.011,102.0,104.0,101.0,13.4,1505.2,325.9,-0.8,1.9,2470.346,13.3,0.056,105.5
2020-09-16T00:07:03,42.805,6.029,0.067,-0.011,-0.032,102.0,105.0,100.0,13.4,1505.3,326.9,-0.7,1.9,2470.325,13.31,0.067,99.3
2020-09-16T00:10:03,42.805,6.029,0.056,-0.013,0.006,101.0,106.0,102.0,13.4,1505.3,323.3,-0.7,1.8,2470.342,13.31,0.057,103.1
2020-09-16T00:13:03,42.805,6.029,0.068,-0.03,-0.002,103.0,105.0,101.0,13.4,1505.3,328.1,-0.7,1.8,2470.312,13.31,0.074,113.8
2020-09-16T00:16:03,42.805,6.029,0.056,-0.035,0.034,103.0,104.0,101.0,13.3,1505.3,326.6,-0.7,1.8,2470.348,13.32,0.066,122.0
2020-09-16T00:19:03,42.805,6.029,0.059,-0.019,0.002,102.0,104.0,101.0,13.4,1505.3,327.8,-0.7,1.8,2470.273,13.32,0.061,107.8
2020-09-16T00:22:03,42.805,6.029,0.067,-0.02,0.0,103.0,103.0,101.0,13.3,1505.3,325.2,-0.7,1.8,2470.281,13.32,0.069,106.6
2020-09-16T00:25:03,42.805,6.029,0.056,-0.025,-0.004,103.0,105.0,100.0,13.4,1505.3,325.3,-0.7,1.8,2470.299,13.32,0.061,114.1
2020-09-16T00:28:03,42.805,6.029,0.057,-0.002,0.003,102.0,105.0,101.0,13.4,1505.3,324.3,-0.7,1.8,2470.374,13.32,0.057,92.0
2020-09-16T00:31:03,42.805,6.029,0.047,-0.023,0.008,104.0,105.0,100.0,13.4,1505.3,326.8,-0.7,1.8,2470.291,13.32,0.052,116.1
2020-09-16T00:34:03,42.805,6.029,0.062,-0.025,-0.021,102.0,104.0,101.0,13.4,1505.3,325.6,-0.7,1.9,2470.259,13.32,0.066,112.0
2020-09-16T00:37:03,42.805,6.029,0.052,-0.006,0.0,103.0,105.0,100.0,13.3,1505.3,323.6,-0.7,1.8,2470.29,13.32,0.052,96.6
2020-09-16T00:40:03,42.805,6.029,0.036,-0.031,-0.017,102.0,104.0,100.0,13.4,1505.3,328.1,-0.7,1.8,2470.302,13.32,0.047,130.7
2020-09-16T00:43:03,42.805,6.029,0.059,-0.003,0.015,102.0,105.0,101.0,13.4,1505.3,325.5,-0.7,1.8,2470.293,13.32,0.059,92.9
2020-09-16T00:46:03,42.805,6.029,0.059,-0.03,-0.03,102.0,106.0,100.0,13.4,1505.3,327.5,-0.7,1.8,2470.331,13.32,0.066,116.9
2020-09-16T00:49:03,42.805,6.029,0.06,-0.038,-0.035,103.0,105.0,101.0,13.3,1505.3,326.5,-0.7,1.8,2470.281,13.32,0.071,122.3
2020-09-16T00:52:03,42.805,6.029,0.059,-0.007,0.018,103.0,106.0,101.0,13.4,1505.3,327.1,-0.7,1.8,2470.295,13.32,0.059,96.8
2020-09-16T00:55:03,42.805,6.029,0.074,-0.009,-0.017,103.0,105.0,100.0,13.3,1505.3,323.4,-0.7,1.8,2470.262,13.32,0.074,96.9
2020-09-16T00:58:03,42.805,6.029,0.069,-0.037,-0.019,102.0,103.0,101.0,13.4,1505.3,324.7,-0.7,1.9,2470.297,13.32,0.078,118.2
2020-09-16T01:04:03,42.805,6.029,0.054,-0.016,-0.013,103.0,105.0,101.0,13.3,1505.2,324.9,-0.7,1.8,2470.334,13.3,0.056,106.5
2020-09-16T01:07:03,42.805,6.029,0.08,-0.037,-0.011,101.0,103.0,101.0,13.4,1505.3,325.9,-0.7,1.8,2470.286,13.31,0.088,114.8
2020-09-16T01:10:03,42.805,6.029,0.087,-0.034,0.02,101.0,105.0,101.0,13.3,1505.3,326.8,-0.7,1.8,2470.335,13.31,0.093,111.3
2020-09-16T01:13:03,42.805,6.029,0.063,-0.013,0.011,102.0,103.0,100.0,13.4,1505.3,324.1,-0.7,1.9,2470.298,13.31,0.064,101.7
2020-09-16T01:16:03,42.805,6.029,0.069,-0.026,-0.008,103.0,105.0,101.0,13.4,1505.3,324.6,-0.7,1.8,2470.299,13.32,0.073,110.6
2020-09-16T01:19:03,42.805,6.029,0.072,-0.024,-0.017,102.0,106.0,101.0,13.4,1505.3,327.8,-0.7,1.9,2470.275,13.32,0.075,108.4
2020-09-16T01:22:03,42.805,6.029,0.038,-0.014,0.015,102.0,105.0,101.0,13.3,1505.3,323.6,-0.7,1.8,2470.291,13.32,0.04,110.2
2020-09-16T01:25:03,42.805,6.029,0.065,-0.008,-0.015,103.0,104.0,101.0,13.4,1505.3,326.2,-0.7,1.9,2470.265,13.32,0.065,97.0
2020-09-16T01:34:03,42.805,6.029,0.052,-0.03,-0.035,103.0,103.0,100.0,13.4,1505.2,324.5,-0.7,1.8,2470.329,13.3,0.06,120.0
2020-09-16T01:37:03,42.805,6.029,0.066,-0.025,0.012,103.0,105.0,101.0,13.3,1505.3,327.4,-0.7,1.8,2470.288,13.31,0.07,110.7
2020-09-16T01:40:03,42.805,6.029,0.062,-0.014,-0.002,101.0,104.0,101.0,13.4,1505.3,325.0,-0.7,1.8,2470.299,13.31,0.063,102.7
2020-09-16T01:43:03,42.805,6.029,0.062,-0.015,0.008,104.0,105.0,100.0,13.3,1505.3,325.8,-0.7,1.8,2470.318,13.31,0.063,103.6
2020-09-16T01:46:03,42.805,6.029,0.062,-0.022,-0.006,102.0,105.0,101.0,13.3,1505.3,324.6,-0.7,1.8,2470.288,13.32,0.065,109.5
2020-09-16T01:49:03,42.805,6.029,0.072,-0.041,-0.016,102.0,103.0,101.0,13.3,1505.3,326.0,-0.7,1.8,2470.311,13.32,0.082,119.7
2020-09-16T01:52:03,42.805,6.029,0.063,-0.02,0.019,103.0,104.0,100.0,13.4,1505.3,326.4,-0.7,1.8,2470.302,13.32,0.066,107.6
2020-09-16T01:55:03,42.805,6.029,0.061,-0.015,-0.012,102.0,105.0,100.0,13.4,1505.3,325.5,-0.7,1.8,2470.336,13.32,0.062,103.8
2020-09-16T01:58:03,42.805,6.029,0.061,-0.04,-0.006,102.0,105.0,101.0,13.3,1505.3,325.8,-0.7,1.9,2470.294,13.32,0.072,123.3
2020-09-16T02:04:03,42.805,6.029,0.073,-0.017,-0.031,102.0,104.0,100.0,13.4,1505.2,327.6,-0.7,1.8,2470.369,13.3,0.074,103.1
2020-09-16T02:07:03,42.805,6.029,0.048,-0.003,0.003,102.0,106.0,100.0,13.4,1505.3,326.2,-0.7,1.8,2470.314,13.31,0.048,93.6
2020-09-16T02:10:03,42.805,6.029,0.025,-0.012,-0.044,102.0,105.0,99.0,13.4,1505.3,326.0,-0.7,1.8,2470.308,13.31,0.027,115.6
2020-09-16T02:13:03,42.805,6.029,0.048,-0.015,0.01,104.0,105.0,100.0,13.4,1505.3,326.1,-0.7,1.8,2470.326,13.32,0.05,107.4
2020-09-16T02:16:03,42.805,6.029,0.067,-0.009,-0.023,101.0,105.0,99.0,13.3,1505.3,323.3,-0.7,1.8,2470.313,13.32,0.067,97.7
2020-09-16T02:19:03,42.805,6.029,0.058,-0.013,-0.011,102.0,105.0,100.0,13.4,1505.3,325.6,-0.7,1.8,2470.322,13.32,0.059,102.6
2020-09-16T02:22:03,42.805,6.029,0.038,-0.01,-0.005,103.0,107.0,100.0,13.3,1505.3,325.2,-0.7,1.8,2470.344,13.32,0.039,104.7
2020-09-16T02:25:03,42.805,6.029,0.074,-0.021,0.005,102.0,105.0,100.0,13.4,1505.3,322.8,-0.7,1.8,2470.366,13.32,0.076,105.8
2020-09-16T02:28:03,42.805,6.029,0.069,-0.007,-0.024,102.0,107.0,100.0,13.4,1505.3,325.3,-0.7,1.9,2470.293,13.32,0.069,95.8
2020-09-16T02:31:04,42.805,6.029,0.071,-0.037,-0.01,103.0,105.0,100.0,13.4,1505.3,328.6,-0.7,1.9,2470.309,13.32,0.08,117.5
2020-09-16T02:34:03,42.805,6.029,0.059,-0.016,-0.014,102.0,104.0,100.0,13.3,1505.3,326.1,-0.7,1.9,2470.33,13.32,0.061,105.2
2020-09-16T02:37:03,42.805,6.029,0.079,-0.025,0.01,102.0,104.0,100.0,13.4,1505.3,323.5,-0.7,1.8,2470.315,13.32,0.082,107.6
2020-09-16T02:40:03,42.805,6.029,0.063,-0.026,0.016,101.0,105.0,102.0,13.4,1505.3,325.8,-0.7,1.8,2470.3,13.32,0.068,112.4
2020-09-16T02:43:03,42.805,6.029,0.049,-0.005,-0.019,102.0,105.0,101.0,13.4,1505.3,324.6,-0.7,1.8,2470.321,13.32,0.049,95.8
2020-09-16T02:46:03,42.805,6.029,0.068,-0.026,0.016,103.0,105.0,100.0,13.4,1505.3,324.6,-0.7,1.8,2470.336,13.32,0.072,110.9
2020-09-16T02:49:03,42.805,6.029,0.059,-0.011,-0.001,103.0,106.0,101.0,13.4,1505.3,326.7,-0.7,1.8,2470.312,13.32,0.06,100.6
2020-09-16T02:52:03,42.805,6.029,0.076,-0.032,0.009,102.0,103.0,100.0,13.4,1505.3,323.4,-0.7,1.8,2470.334,13.32,0.082,112.8
2020-09-16T02:55:03,42.805,6.029,0.061,-0.026,0.01,102.0,103.0,101.0,13.4,1505.3,326.4,-0.8,1.9,2470.272,13.32,0.066,113.1
2020-09-16T02:58:03,42.805,6.029,0.037,-0.022,-0.003,101.0,105.0,100.0,13.4,1505.3,325.4,-0.7,1.8,2470.306,13.32,0.043,120.7
2020-09-16T03:04:03,42.805,6.029,0.065,-0.027,0.041,102.0,104.0,100.0,13.4,1505.2,326.3,-0.7,1.8,2470.345,13.3,0.07,112.6
2020-09-16T03:07:03,42.805,6.029,0.075,-0.021,0.001,103.0,103.0,100.0,13.4,1505.3,323.8,-0.7,1.8,2470.309,13.31,0.077,105.6
2020-09-16T03:10:03,42.805,6.029,0.063,-0.017,0.015,101.0,105.0,101.0,13.4,1505.3,324.1,-0.7,1.8,2470.393,13.31,0.065,105.1
2020-09-16T03:13:03,42.805,6.029,0.079,-0.016,0.012,103.0,108.0,100.0,13.3,1505.3,324.2,-0.7,1.8,2470.351,13.32,0.08,101.4
2020-09-16T03:16:03,42.805,6.029,0.044,-0.042,-0.045,101.0,104.0,101.0,13.4,1505.3,326.9,-0.7,1.8,2470.333,13.32,0.06,133.7
2020-09-16T03:19:03,42.805,6.029,0.068,-0.023,0.012,103.0,103.0,101.0,13.4,1505.3,323.3,-0.7,1.8,2470.329,13.32,0.071,108.7
2020-09-16T03:22:03,42.805,6.029,0.066,-0.039,-0.035,102.0,104.0,100.0,13.4,1505.3,325.8,-0.8,1.8,2470.414,13.32,0.076,120.6
2020-09-16T03:25:03,42.805,6.029,0.082,-0.029,-0.013,103.0,104.0,100.0,13.4,1505.3,323.0,-0.7,1.8,2470.356,13.32,0.086,109.5
2020-09-16T03:28:03,42.805,6.029,0.053,-0.034,-0.002,102.0,103.0,100.0,13.4,1505.3,326.1,-0.7,1.8,2470.372,13.32,0.062,122.7
2020-09-16T03:31:03,42.805,6.029,0.047,-0.037,0.0,103.0,102.0,101.0,13.3,1505.3,325.8,-0.7,1.8,2470.375,13.32,0.059,128.2
2020-09-16T03:34:03,42.805,6.029,0.062,-0.034,0.002,102.0,103.0,101.0,13.4,1505.3,327.6,-0.7,1.8,2470.357,13.32,0.07,118.7
2020-09-16T03:37:03,42.805,6.029,0.073,0.004,0.005,102.0,104.0,101.0,13.3,1505.3,325.8,-0.7,1.8,2470.339,13.32,0.073,86.9
2020-09-16T03:40:04,42.805,6.029,0.066,-0.008,0.022,102.0,103.0,101.0,13.3,1505.3,327.3,-0.7,1.8,2470.379,13.32,0.066,96.9
2020-09-16T03:43:03,42.805,6.029,0.055,-0.026,0.026,102.0,104.0,101.0,13.4,1505.3,326.9,-0.7,1.8,2470.284,13.32,0.06,115.3
2020-09-16T03:46:03,42.805,6.029,0.059,-0.02,0.013,103.0,103.0,100.0,13.4,1505.3,325.0,-0.7,1.8,2470.328,13.32,0.062,108.7
2020-09-16T03:49:03,42.805,6.029,0.053,-0.023,-0.005,103.0,106.0,101.0,13.4,1505.3,325.8,-0.7,1.8,2470.357,13.32,0.057,113.5
2020-09-16T03:52:03,42.805,6.029,0.06,-0.033,-0.014,102.0,103.0,100.0,13.3,1505.3,325.7,-0.7,1.8,2470.321,13.32,0.068,118.8
2020-09-16T03:55:03,42.805,6.029,0.049,-0.025,-0.031,102.0,105.0,101.0,13.4,1505.3,327.9,-0.7,1.8,2470.377,13.32,0.055,117.0
2020-09-16T03:58:03,42.805,6.029,0.073,-0.035,-0.006,102.0,106.0,100.0,13.4,1505.3,326.9,-0.7,1.8,2470.362,13.32,0.08,115.6
2020-09-16T04:04:03,42.805,6.029,0.051,-0.033,-0.015,102.0,104.0,99.0,13.4,1505.2,324.1,-0.8,1.8,2470.41,13.3,0.06,122.9
2020-09-16T04:07:03,42.805,6.029,0.072,-0.033,-0.031,102.0,103.0,100.0,13.4,1505.3,327.2,-0.7,1.9,2470.375,13.31,0.079,114.6
2020-09-16T04:10:03,42.805,6.029,0.065,-0.023,-0.008,102.0,103.0,100.0,13.3,1505.3,327.7,-0.7,1.8,2470.385,13.31,0.068,109.5
2020-09-16T04:13:03,42.805,6.029,0.06,-0.015,0.036,103.0,104.0,100.0,13.4,1505.3,324.5,-0.7,1.8,2470.395,13.31,0.061,104.0
2020-09-16T04:16:06,42.805,6.029,0.058,-0.025,-0.02,102.0,105.0,100.0,13.3,1505.3,325.9,-0.7,1.8,2470.385,13.32,0.063,113.3
2020-09-16T04:19:03,42.805,6.029,0.065,-0.017,0.022,102.0,108.0,101.0,13.4,1505.3,326.6,-0.7,1.8,2470.417,13.32,0.067,104.7
2020-09-16T04:22:03,42.805,6.029,0.078,-0.017,0.002,104.0,105.0,101.0,13.4,1505.3,323.8,-0.7,1.8,2470.392,13.32,0.079,102.3
2020-09-16T04:25:03,42.805,6.029,0.074,-0.028,0.012,102.0,103.0,100.0,13.4,1505.3,325.1,-0.7,1.8,2470.396,13.32,0.079,110.7
2020-09-16T04:28:03,42.805,6.029,0.089,-0.025,0.032,103.0,103.0,101.0,13.4,1505.3,325.6,-0.7,1.8,2470.357,13.32,0.092,105.7
2020-09-16T04:31:03,42.805,6.029,0.043,-0.009,0.003,102.0,105.0,101.0,13.4,1505.3,326.0,-0.7,1.8,2470.436,13.32,0.043,101.8
2020-09-16T04:34:03,42.805,6.029,0.075,-0.032,0.014,102.0,104.0,100.0,13.4,1505.3,326.4,-0.7,1.8,2470.409,13.32,0.081,113.1
2020-09-16T04:37:03,42.805,6.029,0.068,-0.029,-0.004,103.0,105.0,101.0,13.4,1505.3,324.6,-0.7,1.8,2470.418,13.32,0.073,113.1
2020-09-16T04:40:03,42.805,6.029,0.064,-0.03,0.004,102.0,104.0,101.0,13.4,1505.3,327.6,-0.7,1.8,2470.401,13.32,0.07,115.1
2020-09-16T04:43:03,42.805,6.029,0.054,-0.025,-0.008,104.0,104.0,101.0,13.4,1505.3,327.0,-0.7,1.8,2470.368,13.32,0.059,114.8
2020-09-16T04:46:04,42.805,6.029,0.064,-0.02,0.012,102.0,102.0,101.0,13.3,1505.3,325.6,-0.7,1.8,2470.389,13.32,0.067,107.4
2020-09-16T04:49:03,42.805,6.029,0.071,-0.027,-0.006,103.0,104.0,101.0,13.4,1505.3,325.0,-0.7,1.9,2470.399,13.32,0.075,110.8
2020-09-16T04:52:03,42.805,6.029,0.083,-0.029,-0.002,101.0,104.0,100.0,13.4,1505.3,326.5,-0.7,1.8,2470.376,13.32,0.087,109.3
2020-09-16T04:55:03,42.805,6.029,0.043,-0.02,0.009,103.0,104.0,100.0,13.4,1505.3,326.5,-0.7,1.8,2470.394,13.32,0.047,114.9
2020-09-16T04:58:03,42.805,6.029,0.068,-0.035,-0.007,102.0,103.0,101.0,13.3,1505.3,327.5,-0.7,1.8,2470.391,13.32,0.076,117.2
2020-09-16T05:04:03,42.805,6.029,0.085,-0.036,-0.001,103.0,103.0,101.0,13.4,1505.2,326.6,-0.7,1.8,2470.445,13.3,0.092,113.0
2020-09-16T05:07:03,42.805,6.029,0.069,-0.025,0.019,102.0,103.0,101.0,13.3,1505.3,324.6,-0.7,1.9,2470.453,13.31,0.073,109.9
2020-09-16T05:10:03,42.805,6.029,0.063,-0.035,0.001,102.0,103.0,101.0,13.3,1505.3,327.0,-0.7,1.8,2470.452,13.31,0.072,119.1
2020-09-16T05:13:03,42.805,6.029,0.045,-0.026,-0.014,103.0,104.0,100.0,13.4,1505.3,324.2,-0.7,1.8,2470.451,13.31,0.051,120.0
2020-09-16T05:16:04,42.805,6.029,0.055,-0.008,0.029,102.0,106.0,102.0,13.4,1505.3,325.1,-0.7,1.8,2470.417,13.32,0.055,98.3
2020-09-16T05:19:03,42.805,6.029,0.083,-0.03,0.005,101.0,103.0,100.0,13.3,1505.3,328.0,-0.7,1.8,2470.415,13.32,0.088,109.9
2020-09-16T05:22:03,42.805,6.029,0.053,-0.024,-0.003,102.0,106.0,100.0,13.4,1505.3,323.2,-0.7,1.8,2470.442,13.32,0.058,114.4
2020-09-16T05:25:03,42.805,6.029,0.058,-0.014,0.025,102.0,104.0,100.0,13.4,1505.3,324.3,-0.7,1.9,2470.443,13.32,0.059,103.6
2020-09-16T05:28:03,42.805,6.029,0.06,-0.034,-0.006,103.0,104.0,101.0,13.4,1505.3,327.2,-0.7,1.8,2470.382,13.32,0.068,119.5
2020-09-16T05:31:03,42.805,6.029,0.065,-0.026,-0.011,103.0,105.0,101.0,13.4,1505.3,326.0,-0.7,1.8,2470.464,13.32,0.07,111.8
2020-09-16T05:34:03,42.805,6.029,0.056,-0.025,0.0,102.0,104.0,100.0,13.3,1505.3,324.8,-0.7,1.8,2470.442,13.32,0.061,114.1
2020-09-16T05:37:03,42.805,6.029,0.043,-0.01,-0.005,102.0,104.0,100.0,13.3,1505.3,328.0,-0.7,1.8,2470.443,13.32,0.044,103.1
2020-09-16T05:40:03,42.805,6.029,0.055,-0.036,-0.04,102.0,106.0,101.0,13.4,1505.3,326.3,-0.7,1.8,2470.444,13.32,0.065,123.2
2020-09-16T05:43:03,42.805,6.029,0.044,-0.027,-0.01,103.0,106.0,101.0,13.3,1505.3,327.2,-0.7,1.8,2470.475,13.32,0.051,121.5
2020-09-16T05:46:04,42.805,6.029,0.053,-0.011,0.021,102.0,106.0,101.0,13.4,1505.3,326.6,-0.7,1.8,2470.45,13.32,0.054,101.7
2020-09-16T05:49:03,42.805,6.029,0.079,-0.013,0.017,102.0,105.0,100.0,13.4,1505.3,325.3,-0.7,1.8,2470.416,13.32,0.08,99.3
2020-09-16T05:52:03,42.805,6.029,0.046,-0.014,-0.016,101.0,104.0,100.0,13.4,1505.3,327.1,-0.7,1.8,2470.443,13.32,0.048,106.9
2020-09-16T05:55:03,42.805,6.029,0.054,-0.027,-0.002,103.0,104.0,101.0,13.4,1505.3,323.2,-0.7,1.9,2470.44,13.32,0.06,116.6
2020-09-16T05:58:03,42.805,6.029,0.057,-0.037,-0.016,101.0,104.0,102.0,13.4,1505.3,326.5,-0.7,1.8,2470.425,13.32,0.067,123.0
2020-09-16T06:04:03,42.805,6.029,0.076,-0.022,0.009,102.0,102.0,99.0,13.4,1505.2,327.3,-0.7,1.8,2470.443,13.3,0.079,106.1
2020-09-16T06:07:03,42.805,6.029,0.071,-0.021,0.03,101.0,104.0,101.0,13.4,1505.3,323.4,-0.7,1.8,2470.503,13.31,0.074,106.5
2020-09-16T06:10:03,42.805,6.029,0.058,-0.011,0.0,102.0,104.0,101.0,13.4,1505.3,324.8,-0.7,1.8,2470.462,13.31,0.059,100.7
2020-09-16T06:13:03,42.805,6.029,0.045,-0.026,-0.035,103.0,103.0,101.0,13.4,1505.3,327.8,-0.7,1.8,2470.457,13.32,0.051,120.0
2020-09-16T06:16:03,42.805,6.029,0.073,-0.002,-0.009,103.0,105.0,101.0,13.4,1505.3,325.4,-0.7,1.8,2470.451,13.32,0.073,91.6
2020-09-16T06:19:03,42.805,6.029,0.052,-0.027,-0.001,102.0,104.0,101.0,13.4,1505.3,323.3,-0.7,1.8,2470.454,13.32,0.058,117.4
2020-09-16T06:22:03,42.805,6.029,0.076,-0.019,-0.008,102.0,104.0,101.0,13.3,1505.3,323.3,-0.7,1.8,2470.433,13.32,0.078,104.0
2020-09-16T06:25:03,42.805,6.029,0.059,-0.018,0.039,102.0,106.0,101.0,13.3,1505.3,323.6,-0.7,1.8,2470.434,13.32,0.061,107.0
2020-09-16T06:28:03,42.805,6.029,0.07,-0.01,0.017,102.0,105.0,101.0,13.3,1505.3,323.4,-0.7,1.8,2470.465,13.32,0.07,98.1
2020-09-16T06:31:03,42.805,6.029,0.057,-0.012,-0.002,103.0,104.0,100.0,13.4,1505.3,326.9,-0.7,1.8,2470.431,13.32,0.058,101.9
2020-09-16T06:34:03,42.805,6.029,0.044,-0.028,0.004,102.0,104.0,101.0,13.3,1505.3,327.7,-0.7,1.8,2470.446,13.32,0.052,122.5
2020-09-16T06:37:03,42.805,6.029,0.057,-0.024,0.019,103.0,105.0,101.0,13.4,1505.3,325.3,-0.7,1.9,2470.464,13.32,0.061,112.8
2020-09-16T06:40:03,42.805,6.029,0.084,-0.026,0.027,102.0,103.0,100.0,13.4,1505.3,323.7,-0.7,1.8,2470.426,13.32,0.087,107.2
2020-09-16T06:43:03,42.805,6.029,0.048,-0.023,0.023,102.0,103.0,101.0,13.3,1505.3,325.7,-0.7,1.8,2470.405,13.32,0.053,115.6
2020-09-16T06:46:03,42.805,6.029,0.074,-0.009,0.0,102.0,105.0,100.0,13.4,1505.3,325.1,-0.7,1.8,2470.413,13.32,0.074,96.9
2020-09-16T06:49:03,42.805,6.029,0.061,-0.021,0.002,103.0,105.0,101.0,13.3,1505.3,328.1,-0.7,1.8,2470.406,13.32,0.064,109.0
2020-09-16T06:52:03,42.805,6.029,0.057,-0.009,0.021,103.0,107.0,101.0,13.4,1505.3,327.9,-0.7,1.8,2470.424,13.32,0.057,99.0
2020-09-16T06:55:03,42.805,6.029,0.061,-0.015,0.006,101.0,104.0,101.0,13.3,1505.3,323.3,-0.7,1.8,2470.39,13.32,0.062,103.8
2020-09-16T06:58:03,42.805,6.029,0.072,-0.031,-0.012,101.0,107.0,101.0,13.4,1505.3,324.0,-0.7,1.8,2470.445,13.32,0.078,113.3
2020-09-16T07:04:03,42.805,6.029,0.07,-0.028,-0.012,102.0,104.0,101.0,13.3,1505.2,326.8,-0.7,1.8,2470.472,13.3,0.075,111.8
2020-09-16T07:07:03,42.805,6.029,0.054,-0.03,-0.014,102.0,105.0,100.0,13.4,1505.3,326.5,-0.7,1.8,2470.442,13.31,0.061,119.1
2020-09-16T07:10:03,42.805,6.029,0.043,-0.029,-0.015,102.0,104.0,101.0,13.4,1505.3,325.4,-0.7,1.8,2470.482,13.31,0.051,124.0
2020-09-16T07:13:03,42.805,6.029,0.049,-0.039,-0.03,102.0,106.0,101.0,13.4,1505.3,325.3,-0.7,1.9,2470.485,13.31,0.062,128.5
2020-09-16T07:16:05,42.805,6.029,0.043,-0.013,0.007,102.0,107.0,101.0,13.3,1505.3,324.2,-0.7,1.8,2470.394,13.32,0.044,106.8
2020-09-16T07:19:03,42.805,6.029,0.087,-0.026,-0.002,102.0,104.0,100.0,13.4,1505.3,324.3,-0.7,1.8,2470.433,13.32,0.09,106.6
2020-09-16T07:22:03,42.805,6.029,0.069,-0.008,0.025,102.0,105.0,101.0,13.4,1505.3,326.6,-0.7,1.9,2470.402,13.32,0.069,96.6
2020-09-16T07:25:03,42.805,6.029,0.047,-0.013,0.009,104.0,104.0,100.0,13.4,1505.3,323.9,-0.7,1.8,2470.428,13.32,0.048,105.5
2020-09-16T07:28:03,42.805,6.029,0.069,-0.029,0.0,101.0,106.0,100.0,13.4,1505.3,325.1,-0.7,1.8,2470.457,13.32,0.074,112.8
2020-09-16T07:31:03,42.805,6.029,0.067,-0.029,0.0,101.0,105.0,101.0,13.4,1505.3,325.7,-0.7,1.9,2470.442,13.32,0.073,113.4
2020-09-16T07:34:03,42.805,6.029,0.049,-0.015,-0.031,103.0,104.0,100.0,13.3,1505.3,322.5,-0.7,1.8,2470.436,13.32,0.051,107.0
2020-09-16T07:37:03,42.805,6.029,0.059,-0.027,0.015,104.0,104.0,101.0,13.4,1505.3,326.5,-0.7,1.9,2470.399,13.32,0.064,114.6
2020-09-16T07:40:03,42.805,6.029,0.074,-0.015,-0.01,102.0,103.0,100.0,13.4,1505.3,325.3,-0.7,1.9,2470.416,13.32,0.075,101.5
2020-09-16T07:43:03,42.805,6.029,0.063,-0.036,-0.017,102.0,104.0,100.0,13.4,1505.3,328.0,-0.7,1.8,2470.449,13.32,0.072,119.7
2020-09-16T07:46:03,42.805,6.029,0.073,-0.04,0.014,102.0,104.0,100.0,13.4,1505.3,324.1,-0.7,1.8,2470.409,13.32,0.083,118.7
2020-09-16T07:49:03,42.805,6.029,0.077,-0.032,0.012,102.0,104.0,101.0,13.3,1505.3,325.4,-0.7,1.8,2470.404,13.32,0.083,112.6
2020-09-16T07:52:03,42.805,6.029,0.07,-0.011,0.027,103.0,104.0,101.0,13.4,1505.3,324.9,-0.7,1.8,2470.383,13.32,0.07,98.9
2020-09-16T07:55:03,42.805,6.029,0.071,-0.014,-0.001,101.0,106.0,101.0,13.4,1505.3,324.8,-0.7,1.8,2470.374,13.32,0.072,101.2
2020-09-16T07:58:03,42.805,6.029,0.067,-0.023,-0.02,102.0,106.0,100.0,13.4,1505.3,326.8,-0.7,1.8,2470.435,13.32,0.07,108.9
2020-09-16T08:04:03,42.805,6.029,0.06,-0.038,0.006,102.0,104.0,100.0,13.4,1505.2,325.9,-0.7,1.9,2470.453,13.3,0.071,122.3
2020-09-16T08:07:03,42.805,6.029,0.059,-0.023,-0.005,102.0,105.0,100.0,13.4,1505.3,324.3,-0.7,1.8,2470.423,13.31,0.063,111.3
2020-09-16T08:10:03,42.805,6.029,0.064,-0.023,-0.013,103.0,105.0,101.0,13.4,1505.3,323.2,-0.7,1.8,2470.412,13.31,0.068,109.8
2020-09-16T08:13:03,42.805,6.029,0.086,-0.045,0.009,103.0,106.0,100.0,13.4,1505.3,326.7,-0.7,1.8,2470.43,13.32,0.097,117.6
2020-09-16T08:16:03,42.805,6.029,0.056,-0.005,-0.012,103.0,103.0,101.0,13.4,1505.3,326.7,-0.7,1.8,2470.434,13.32,0.056,95.1
2020-09-16T08:19:03,42.805,6.029,0.075,-0.007,0.013,103.0,105.0,101.0,13.4,1505.3,324.4,-0.7,1.9,2470.401,13.32,0.075,95.3
2020-09-16T08:22:04,42.805,6.029,0.043,-0.036,-0.013,103.0,104.0,101.0,13.4,1505.3,325.4,-0.7,1.9,2470.391,13.32,0.056,129.9
2020-09-16T08:25:04,42.805,6.029,0.053,-0.025,0.009,101.0,105.0,101.0,13.3,1505.3,327.5,-0.7,1.8,2470.403,13.32,0.058,115.3
2020-09-16T08:28:03,42.805,6.029,0.045,-0.022,0.005,102.0,104.0,101.0,13.3,1505.3,324.6,-0.7,1.8,2470.37,13.32,0.05,116.1
2020-09-16T08:31:03,42.805,6.029,0.075,-0.028,0.035,103.0,103.0,100.0,13.4,1505.3,327.7,-0.7,1.9,2470.397,13.32,0.08,110.5
2020-09-16T08:34:03,42.805,6.029,0.062,-0.019,0.023,104.0,104.0,100.0,13.3,1505.3,325.0,-0.7,1.8,2470.357,13.32,0.064,107.0
2020-09-16T08:37:03,42.805,6.029,0.037,-0.011,0.005,102.0,105.0,101.0,13.4,1505.3,325.8,-0.7,1.8,2470.362,13.32,0.038,106.6
2020-09-16T08:40:03,42.805,6.029,0.041,-0.016,-0.019,103.0,106.0,101.0,13.3,1505.3,324.0,-0.7,1.8,2470.369,13.32,0.044,111.3
2020-09-16T08:43:03,42.805,6.029,0.064,-0.036,-0.005,103.0,103.0,101.0,13.4,1505.3,325.7,-0.7,1.9,2470.371,13.32,0.073,119.4
2020-09-16T08:46:03,42.805,6.029,0.098,-0.028,0.022,103.0,106.0,100.0,13.3,1505.3,325.3,-0.7,1.8,2470.379,13.32,0.101,105.9
2020-09-16T08:49:03,42.805,6.029,0.028,-0.012,0.005,104.0,105.0,102.0,13.3,1505.3,325.0,-0.7,1.8,2470.373,13.32,0.03,113.2
2020-09-16T08:52:03,42.805,6.029,0.054,-0.034,-0.025,103.0,104.0,100.0,13.4,1505.3,327.6,-0.7,1.8,2470.373,13.32,0.063,122.2
2020-09-16T08:55:03,42.805,6.029,0.049,-0.034,0.01,103.0,105.0,101.0,13.4,1505.3,326.5,-0.8,1.8,2470.372,13.32,0.059,124.8
2020-09-16T08:58:03,42.805,6.029,0.056,-0.008,-0.005,104.0,106.0,101.0,13.4,1505.3,325.9,-0.7,1.8,2470.327,13.32,0.056,98.1
2020-09-16T09:04:03,42.805,6.029,0.091,-0.043,0.0,103.0,104.0,101.0,13.4,1505.2,327.0,-0.7,1.8,2470.416,13.3,0.1,115.3
2020-09-16T09:07:03,42.805,6.029,0.061,-0.028,-0.03,104.0,106.0,101.0,13.4,1505.3,327.9,-0.8,1.8,2470.354,13.31,0.067,114.7
2020-09-16T09:10:03,42.805,6.029,0.062,-0.03,0.0,103.0,103.0,101.0,13.4,1505.3,324.5,-0.7,1.8,2470.384,13.31,0.068,115.8
2020-09-16T09:13:03,42.805,6.029,0.058,-0.027,-0.022,103.0,105.0,101.0,13.4,1505.3,326.3,-0.7,1.8,2470.395,13.32,0.063,115.0
2020-09-16T09:16:03,42.805,6.029,0.066,-0.024,0.019,103.0,103.0,102.0,13.4,1505.3,326.6,-0.7,1.8,2470.36,13.32,0.07,110.0
2020-09-16T09:19:03,42.805,6.029,0.068,-0.023,-0.006,103.0,105.0,100.0,13.4,1505.3,326.9,-0.7,1.8,2470.328,13.32,0.071,108.7
2020-09-16T09:22:03,42.805,6.029,0.086,-0.028,0.012,102.0,105.0,102.0,13.4,1505.3,325.7,-0.7,1.8,2470.372,13.32,0.09,108.0
2020-09-16T09:25:03,42.805,6.029,0.06,-0.04,-0.008,102.0,104.0,101.0,13.3,1505.3,328.3,-0.7,1.9,2470.342,13.32,0.072,123.7
2020-09-16T09:28:03,42.805,6.029,0.058,-0.029,-0.022,104.0,104.0,101.0,13.4,1505.3,328.3,-0.7,1.8,2470.301,13.32,0.064,116.6
2020-09-16T09:31:03,42.805,6.029,0.084,-0.026,0.018,102.0,103.0,102.0,13.4,1505.3,327.6,-0.7,1.8,2470.356,13.32,0.087,107.2
2020-09-16T09:34:03,42.805,6.029,0.072,-0.025,0.028,102.0,104.0,100.0,13.4,1505.3,324.6,-0.7,1.8,2470.387,13.32,0.076,109.1
2020-09-16T09:37:03,42.805,6.029,0.064,-0.033,-0.01,103.0,104.0,102.0,13.4,1505.3,326.2,-0.7,1.8,2470.325,13.32,0.072,117.3
2020-09-16T09:40:03,42.805,6.029,0.077,-0.037,0.028,104.0,104.0,101.0,13.3,1505.3,327.8,-0.7,1.8,2470.361,13.32,0.085,115.7
2020-09-16T09:43:03,42.805,6.029,0.068,-0.035,-0.027,103.0,103.0,101.0,13.3,1505.3,322.7,-0.7,1.8,2470.332,13.32,0.076,117.2
2020-09-16T09:46:03,42.805,6.029,0.074,-0.034,0.016,103.0,105.0,101.0,13.4,1505.3,325.4,-0.7,1.8,2470.345,13.32,0.081,114.7
2020-09-16T09:49:03,42.805,6.029,0.054,-0.032,0.022,102.0,104.0,101.0,13.3,1505.3,324.2,-0.7,1.8,2470.297,13.32,0.062,120.7
2020-09-16T09:52:03,42.805,6.029,0.082,-0.008,0.031,102.0,104.0,101.0,13.4,1505.3,324.4,-0.7,1.9,2470.297,13.32,0.082,95.6
2020-09-16T09:55:03,42.805,6.029,0.077,-0.031,0.03,103.0,104.0,100.0,13.4,1505.3,327.3,-0.7,1.8,2470.327,13.32,0.083,111.9
2020-09-16T09:58:03,42.805,6.029,0.052,-0.015,0.015,102.0,105.0,100.0,13.3,1505.3,326.0,-0.7,1.9,2470.34,13.32,0.054,106.1
2020-09-16T10:04:03,42.805,6.029,0.076,-0.032,0.035,103.0,104.0,101.0,13.4,1505.2,325.5,-0.7,1.8,2470.378,13.3,0.082,112.8
2020-09-16T10:07:03,42.805,6.029,0.064,-0.031,0.006,102.0,104.0,102.0,13.4,1505.3,327.9,-0.7,1.8,2470.351,13.31,0.071,115.8